Time,TemperatureF,DewpointF,PressureIn,WindDirection,WindDirectionDegrees,WindSpeedMPH,WindSpeedGustMPH,Humidity,HourlyPrecipIn,Conditions,Clouds,dailyrainin,SoftwareType,DateUTC
2013-01-18 00:03:00,29.0,26.0,30.11,WNW,286,6.0,10.0,89,0.00,,,0.00,,2013-01-18 05:03:00,
2013-01-18 00:12:00,29.0,26.0,30.11,WNW,286,6.0,10.0,89,0.00,,,0.00,,2013-01-18 05:12:00,
2013-01-18 00:22:00,29.0,26.0,30.12,WNW,294,8.0,16.0,89,0.00,,,0.00,,2013-01-18 05:22:00,
2013-01-18 00:33:00,29.0,26.0,30.13,West,266,6.0,21.0,89,0.00,,,0.00,,2013-01-18 05:33:00,
2013-01-18 00:42:00,29.0,26.0,30.13,West,266,6.0,21.0,89,0.00,,,0.00,,2013-01-18 05:42:00,
2013-01-18 00:53:00,28.0,25.0,30.14,West,271,9.0,15.0,89,0.00,,,0.00,,2013-01-18 05:53:00,
2013-01-18 01:02:00,28.0,25.0,30.15,WNW,283,7.0,14.0,89,0.00,,,0.00,,2013-01-18 06:02:00,
2013-01-18 01:12:00,28.0,25.0,30.15,WNW,283,7.0,14.0,89,0.00,,,0.00,,2013-01-18 06:12:00,
2013-01-18 01:22:00,28.0,25.0,30.15,West,274,9.0,18.0,89,0.00,,,0.00,,2013-01-18 06:22:00,
2013-01-18 01:33:00,28.0,25.0,30.15,West,277,11.0,20.0,89,0.00,,,0.00,,2013-01-18 06:33:00,
2013-01-18 01:43:00,28.0,25.0,30.15,West,277,11.0,20.0,89,0.00,,,0.00,,2013-01-18 06:43:00,
2013-01-18 01:53:00,29.0,26.0,30.16,West,271,10.0,18.0,88,0.00,,,0.00,,2013-01-18 06:53:00,
2013-01-18 02:02:00,29.0,26.0,30.18,WNW,282,10.0,16.0,88,0.00,,,0.00,,2013-01-18 07:02:00,
2013-01-18 02:12:00,29.0,26.0,30.18,WNW,282,10.0,16.0,88,0.00,,,0.00,,2013-01-18 07:12:00,
2013-01-18 02:22:00,29.0,25.0,30.18,NNW,327,13.0,21.0,86,0.00,,,0.00,,2013-01-18 07:22:00,
2013-01-18 02:32:00,28.0,24.0,30.19,West,279,10.0,17.0,85,0.00,,,0.00,,2013-01-18 07:32:00,
2013-01-18 02:42:00,28.0,24.0,30.19,West,279,10.0,17.0,85,0.00,,,0.00,,2013-01-18 07:42:00,
2013-01-18 02:52:00,28.0,24.0,30.20,WSW,253,11.0,19.0,84,0.00,,,0.00,,2013-01-18 07:52:00,
2013-01-18 03:02:00,28.0,23.0,30.21,West,281,11.0,19.0,82,0.00,,,0.00,,2013-01-18 08:02:00,
2013-01-18 03:12:00,28.0,23.0,30.21,West,281,11.0,19.0,82,0.00,,,0.00,,2013-01-18 08:12:00,
2013-01-18 03:22:00,28.0,23.0,30.22,West,261,16.0,24.0,80,0.00,,,0.00,,2013-01-18 08:22:00,
2013-01-18 03:32:00,27.0,22.0,30.22,WNW,282,11.0,18.0,80,0.00,,,0.00,,2013-01-18 08:32:00,
2013-01-18 03:42:00,27.0,22.0,30.22,WNW,282,11.0,18.0,80,0.00,,,0.00,,2013-01-18 08:42:00,
2013-01-18 03:53:00,27.0,21.0,30.23,West,267,9.0,26.0,78,0.00,,,0.00,,2013-01-18 08:53:00,
2013-01-18 04:03:00,27.0,21.0,30.24,West,267,8.0,15.0,79,0.00,,,0.00,,2013-01-18 09:03:00,
2013-01-18 04:12:00,27.0,21.0,30.24,West,267,8.0,15.0,79,0.00,,,0.00,,2013-01-18 09:12:00,
2013-01-18 04:22:00,26.0,19.0,30.24,WNW,298,14.0,23.0,76,0.00,,,0.00,,2013-01-18 09:22:00,
2013-01-18 04:33:00,26.0,19.0,30.26,SW,236,10.0,22.0,76,0.00,,,0.00,,2013-01-18 09:33:00,
2013-01-18 04:42:00,26.0,19.0,30.26,SW,236,10.0,22.0,76,0.00,,,0.00,,2013-01-18 09:42:00,
2013-01-18 04:53:00,25.0,19.0,30.26,West,274,9.0,20.0,77,0.00,,,0.00,,2013-01-18 09:53:00,
2013-01-18 05:03:00,25.0,19.0,30.27,West,279,11.0,21.0,79,0.00,,,0.00,,2013-01-18 10:03:00,
2013-01-18 05:12:00,25.0,19.0,30.27,West,279,11.0,21.0,79,0.00,,,0.00,,2013-01-18 10:12:00,
2013-01-18 05:22:00,24.0,19.0,30.27,WNW,293,10.0,17.0,80,0.00,,,0.00,,2013-01-18 10:22:00,
2013-01-18 05:32:00,24.0,19.0,30.29,NNW,327,12.0,18.0,80,0.00,,,0.00,,2013-01-18 10:32:00,
2013-01-18 05:43:00,24.0,19.0,30.29,NNW,327,12.0,18.0,80,0.00,,,0.00,,2013-01-18 10:43:00,
2013-01-18 05:53:00,24.0,19.0,30.30,WNW,285,7.0,14.0,80,0.00,,,0.00,,2013-01-18 10:53:00,
2013-01-18 06:02:00,23.0,16.0,30.31,NW,319,10.0,20.0,75,0.00,,,0.00,,2013-01-18 11:02:00,
2013-01-18 06:12:00,23.0,16.0,30.31,NW,319,10.0,20.0,75,0.00,,,0.00,,2013-01-18 11:12:00,
2013-01-18 06:23:00,23.0,16.0,30.32,NW,304,11.0,26.0,75,0.00,,,0.00,,2013-01-18 11:23:00,
2013-01-18 06:32:00,22.0,16.0,30.32,NW,321,11.0,20.0,76,0.00,,,0.00,,2013-01-18 11:32:00,
2013-01-18 06:42:00,22.0,16.0,30.32,NW,321,11.0,20.0,76,0.00,,,0.00,,2013-01-18 11:42:00,
2013-01-18 06:53:00,22.0,16.0,30.33,WNW,286,11.0,22.0,76,0.00,,,0.00,,2013-01-18 11:53:00,
2013-01-18 07:03:00,22.0,15.0,30.35,NW,321,11.0,17.0,75,0.00,,,0.00,,2013-01-18 12:03:00,
2013-01-18 07:12:00,22.0,15.0,30.35,NW,321,11.0,17.0,75,0.00,,,0.00,,2013-01-18 12:12:00,
2013-01-18 07:23:00,21.0,14.0,30.35,WNW,302,8.0,16.0,75,0.00,,,0.00,,2013-01-18 12:23:00,
2013-01-18 07:33:00,20.0,14.0,30.36,WNW,299,7.0,18.0,76,0.00,,,0.00,,2013-01-18 12:33:00,
2013-01-18 07:43:00,20.0,14.0,30.36,WNW,299,7.0,18.0,76,0.00,,,0.00,,2013-01-18 12:43:00,
2013-01-18 07:53:00,20.0,14.0,30.36,NW,315,9.0,16.0,76,0.00,,,0.00,,2013-01-18 12:53:00,
2013-01-18 08:03:00,19.0,12.0,30.37,NNW,343,11.0,18.0,74,0.00,,,0.00,,2013-01-18 13:03:00,
2013-01-18 08:12:00,19.0,12.0,30.37,NNW,343,11.0,18.0,74,0.00,,,0.00,,2013-01-18 13:12:00,
2013-01-18 08:23:00,19.0,12.0,30.37,NW,313,7.0,19.0,73,0.00,,,0.00,,2013-01-18 13:23:00,
2013-01-18 08:33:00,19.0,12.0,30.37,WNW,299,12.0,15.0,73,0.00,,,0.00,,2013-01-18 13:33:00,
2013-01-18 08:43:00,19.0,12.0,30.37,WNW,299,12.0,15.0,73,0.00,,,0.00,,2013-01-18 13:43:00,
2013-01-18 08:53:00,19.0,12.0,30.39,NW,325,7.0,14.0,73,0.00,,,0.00,,2013-01-18 13:53:00,
2013-01-18 09:03:00,18.0,11.0,30.40,WNW,296,10.0,15.0,74,0.00,,,0.00,,2013-01-18 14:03:00,
2013-01-18 09:12:00,18.0,11.0,30.40,WNW,296,10.0,15.0,74,0.00,,,0.00,,2013-01-18 14:12:00,
2013-01-18 09:23:00,19.0,12.0,30.37,North,5,7.0,11.0,75,0.00,,,0.00,,2013-01-18 14:23:00,
2013-01-18 09:34:00,19.0,12.0,30.38,NW,321,7.0,14.0,75,0.00,,,0.00,,2013-01-18 14:34:00,
2013-01-18 09:43:00,19.0,12.0,30.38,NW,321,7.0,14.0,75,0.00,,,0.00,,2013-01-18 14:43:00,
2013-01-18 09:53:00,19.0,13.0,30.39,West,277,6.0,12.0,76,0.00,,,0.00,,2013-01-18 14:53:00,
2013-01-18 10:03:00,19.0,12.0,30.40,NW,304,7.0,11.0,75,0.00,,,0.00,,2013-01-18 15:03:00,
2013-01-18 10:13:00,19.0,12.0,30.40,NW,304,7.0,11.0,75,0.00,,,0.00,,2013-01-18 15:13:00,
2013-01-18 10:23:00,20.0,13.0,30.41,WNW,294,5.0,10.0,74,0.00,,,0.00,,2013-01-18 15:23:00,
2013-01-18 10:34:00,20.0,12.0,30.41,West,263,8.0,13.0,71,0.00,,,0.00,,2013-01-18 15:34:00,
2013-01-18 10:43:00,20.0,12.0,30.41,West,263,8.0,13.0,71,0.00,,,0.00,,2013-01-18 15:43:00,
2013-01-18 10:54:00,21.0,12.0,30.41,West,274,6.0,13.0,69,0.00,,,0.00,,2013-01-18 15:54:00,
2013-01-18 11:03:00,21.0,12.0,30.42,West,261,9.0,14.0,67,0.00,,,0.00,,2013-01-18 16:03:00,
2013-01-18 11:13:00,21.0,12.0,30.42,West,261,9.0,14.0,67,0.00,,,0.00,,2013-01-18 16:13:00,
2013-01-18 11:23:00,22.0,13.0,30.41,NW,315,5.0,13.0,67,0.00,,,0.00,,2013-01-18 16:23:00,
2013-01-18 11:33:00,22.0,12.0,30.41,WNW,292,6.0,10.0,66,0.00,,,0.00,,2013-01-18 16:33:00,
2013-01-18 11:43:00,22.0,12.0,30.41,WNW,292,6.0,10.0,66,0.00,,,0.00,,2013-01-18 16:43:00,
2013-01-18 11:53:00,23.0,13.0,30.41,WSW,244,6.0,10.0,64,0.00,,,0.00,,2013-01-18 16:53:00,
2013-01-18 12:03:00,23.0,13.0,30.40,WNW,288,5.0,7.0,64,0.00,,,0.00,,2013-01-18 17:03:00,
2013-01-18 12:13:00,23.0,13.0,30.40,WNW,288,5.0,7.0,64,0.00,,,0.00,,2013-01-18 17:13:00,
2013-01-18 12:23:00,24.0,13.0,30.39,West,280,6.0,10.0,62,0.00,,,0.00,,2013-01-18 17:23:00,
2013-01-18 12:33:00,24.0,13.0,30.39,WNW,295,5.0,12.0,61,0.00,,,0.00,,2013-01-18 17:33:00,
2013-01-18 12:43:00,24.0,13.0,30.39,WNW,295,5.0,12.0,61,0.00,,,0.00,,2013-01-18 17:43:00,
2013-01-18 12:53:00,25.0,13.0,30.38,NW,311,4.0,8.0,60,0.00,,,0.00,,2013-01-18 17:53:00,
2013-01-18 13:03:00,25.0,13.0,30.37,WNW,294,2.0,12.0,59,0.00,,,0.00,,2013-01-18 18:03:00,
2013-01-18 13:13:00,25.0,13.0,30.37,WNW,294,2.0,12.0,59,0.00,,,0.00,,2013-01-18 18:13:00,
2013-01-18 13:23:00,26.0,14.0,30.37,West,271,2.0,7.0,59,0.00,,,0.00,,2013-01-18 18:23:00,
2013-01-18 13:33:00,26.0,13.0,30.36,SW,226,5.0,8.0,57,0.00,,,0.00,,2013-01-18 18:33:00,
2013-01-18 13:43:00,26.0,13.0,30.36,SW,226,5.0,8.0,57,0.00,,,0.00,,2013-01-18 18:43:00,
2013-01-18 13:53:00,27.0,13.0,30.36,WSW,256,4.0,7.0,55,0.00,,,0.00,,2013-01-18 18:53:00,
2013-01-18 14:03:00,27.0,13.0,30.37,South,190,5.0,11.0,56,0.00,,,0.00,,2013-01-18 19:03:00,
2013-01-18 14:13:00,27.0,13.0,30.37,South,190,5.0,11.0,56,0.00,,,0.00,,2013-01-18 19:13:00,
2013-01-18 14:23:00,28.0,15.0,30.37,SW,223,7.0,13.0,57,0.00,,,0.00,,2013-01-18 19:23:00,
2013-01-18 14:33:00,28.0,15.0,30.37,SW,226,2.0,8.0,57,0.00,,,0.00,,2013-01-18 19:33:00,
2013-01-18 14:43:00,28.0,15.0,30.37,SW,226,2.0,8.0,57,0.00,,,0.00,,2013-01-18 19:43:00,
2013-01-18 14:53:00,29.0,15.0,30.37,SW,221,6.0,11.0,55,0.00,,,0.00,,2013-01-18 19:53:00,
2013-01-18 15:03:00,28.0,14.0,30.37,WSW,247,4.0,11.0,54,0.00,,,0.00,,2013-01-18 20:03:00,
2013-01-18 15:13:00,28.0,14.0,30.37,WSW,247,4.0,11.0,54,0.00,,,0.00,,2013-01-18 20:13:00,
2013-01-18 15:23:00,29.0,15.0,30.37,West,273,5.0,12.0,55,0.00,,,0.00,,2013-01-18 20:23:00,
2013-01-18 15:33:00,29.0,14.0,30.37,West,275,4.0,13.0,52,0.00,,,0.00,,2013-01-18 20:33:00,
2013-01-18 15:43:00,29.0,14.0,30.37,West,275,4.0,13.0,52,0.00,,,0.00,,2013-01-18 20:43:00,
2013-01-18 15:53:00,30.0,15.0,30.37,SW,223,4.0,9.0,52,0.00,,,0.00,,2013-01-18 20:53:00,
2013-01-18 16:03:00,30.0,15.0,30.36,WNW,283,4.0,8.0,52,0.00,,,0.00,,2013-01-18 21:03:00,
2013-01-18 16:13:00,30.0,15.0,30.36,WNW,283,4.0,8.0,52,0.00,,,0.00,,2013-01-18 21:13:00,
2013-01-18 16:23:00,31.0,15.0,30.36,SW,224,1.0,9.0,50,0.00,,,0.00,,2013-01-18 21:23:00,
2013-01-18 16:33:00,31.0,14.0,30.36,SSW,212,3.0,8.0,49,0.00,,,0.00,,2013-01-18 21:33:00,
2013-01-18 16:43:00,31.0,14.0,30.36,SSW,212,3.0,8.0,49,0.00,,,0.00,,2013-01-18 21:43:00,
2013-01-18 16:53:00,31.0,15.0,30.35,SSW,202,4.0,11.0,51,0.00,,,0.00,,2013-01-18 21:53:00,
2013-01-18 17:03:00,30.0,14.0,30.35,South,183,2.0,6.0,50,0.00,,,0.00,,2013-01-18 22:03:00,
2013-01-18 17:12:00,30.0,14.0,30.35,South,183,2.0,6.0,50,0.00,,,0.00,,2013-01-18 22:12:00,
2013-01-18 17:23:00,30.0,14.0,30.35,WSW,239,0.0,4.0,51,0.00,,,0.00,,2013-01-18 22:23:00,
2013-01-18 17:33:00,29.0,14.0,30.34,WSW,249,3.0,7.0,52,0.00,,,0.00,,2013-01-18 22:33:00,
2013-01-18 17:43:00,29.0,14.0,30.34,WSW,249,3.0,7.0,52,0.00,,,0.00,,2013-01-18 22:43:00,
2013-01-18 17:53:00,29.0,14.0,30.35,SW,236,1.0,6.0,53,0.00,,,0.00,,2013-01-18 22:53:00,
2013-01-18 18:03:00,29.0,14.0,30.35,SE,142,4.0,5.0,54,0.00,,,0.00,,2013-01-18 23:03:00,
2013-01-18 18:12:00,29.0,14.0,30.35,SE,142,4.0,5.0,54,0.00,,,0.00,,2013-01-18 23:12:00,
2013-01-18 18:23:00,29.0,14.0,30.34,ESE,113,0.0,6.0,54,0.00,,,0.00,,2013-01-18 23:23:00,
2013-01-18 18:33:00,28.0,14.0,30.34,SSE,156,1.0,5.0,55,0.00,,,0.00,,2013-01-18 23:33:00,
2013-01-18 18:43:00,28.0,14.0,30.34,SSE,156,1.0,5.0,55,0.00,,,0.00,,2013-01-18 23:43:00,
2013-01-18 18:53:00,28.0,14.0,30.34,SW,218,2.0,4.0,55,0.00,,,0.00,,2013-01-18 23:53:00,
2013-01-18 19:02:00,28.0,14.0,30.34,WSW,255,0.0,3.0,55,0.00,,,0.00,,2013-01-19 00:02:00,
2013-01-18 19:12:00,28.0,14.0,30.34,WSW,255,0.0,3.0,55,0.00,,,0.00,,2013-01-19 00:12:00,
2013-01-18 19:23:00,28.0,14.0,30.34,SE,127,0.0,5.0,55,0.00,,,0.00,,2013-01-19 00:23:00,
2013-01-18 19:33:00,28.0,14.0,30.35,SSE,155,2.0,5.0,55,0.00,,,0.00,,2013-01-19 00:33:00,
2013-01-18 19:43:00,28.0,14.0,30.35,SSE,155,2.0,5.0,55,0.00,,,0.00,,2013-01-19 00:43:00,
2013-01-18 19:53:00,28.0,14.0,30.35,SSW,201,0.0,4.0,54,0.00,,,0.00,,2013-01-19 00:53:00,
2013-01-18 20:02:00,28.0,14.0,30.35,SSW,196,0.0,3.0,54,0.00,,,0.00,,2013-01-19 01:02:00,
2013-01-18 20:12:00,28.0,14.0,30.35,SSW,196,0.0,3.0,54,0.00,,,0.00,,2013-01-19 01:12:00,
2013-01-18 20:23:00,28.0,14.0,30.35,SSW,192,1.0,5.0,55,0.00,,,0.00,,2013-01-19 01:23:00,
2013-01-18 20:33:00,28.0,14.0,30.34,East,82,1.0,5.0,56,0.00,,,0.00,,2013-01-19 01:33:00,
2013-01-18 20:43:00,28.0,14.0,30.34,East,82,1.0,5.0,56,0.00,,,0.00,,2013-01-19 01:43:00,
2013-01-18 20:53:00,28.0,15.0,30.34,NE,53,1.0,4.0,57,0.00,,,0.00,,2013-01-19 01:53:00,
2013-01-18 21:03:00,27.0,14.0,30.33,ESE,106,0.0,4.0,58,0.00,,,0.00,,2013-01-19 02:03:00,
2013-01-18 21:12:00,27.0,14.0,30.33,ESE,106,0.0,4.0,58,0.00,,,0.00,,2013-01-19 02:12:00,
2013-01-18 21:23:00,27.0,14.0,30.32,ENE,76,0.0,4.0,58,0.00,,,0.00,,2013-01-19 02:23:00,
2013-01-18 21:33:00,27.0,15.0,30.32,East,90,2.0,4.0,59,0.00,,,0.00,,2013-01-19 02:33:00,
2013-01-18 21:43:00,27.0,15.0,30.32,East,90,2.0,4.0,59,0.00,,,0.00,,2013-01-19 02:43:00,
2013-01-18 21:53:00,27.0,14.0,30.31,East,101,1.0,4.0,58,0.00,,,0.00,,2013-01-19 02:53:00,
2013-01-18 22:03:00,28.0,15.0,30.31,ENE,74,1.0,4.0,57,0.00,,,0.00,,2013-01-19 03:03:00,
2013-01-18 22:12:00,28.0,15.0,30.31,ENE,74,1.0,4.0,57,0.00,,,0.00,,2013-01-19 03:12:00,
2013-01-18 22:23:00,28.0,14.0,30.30,SE,128,0.0,4.0,56,0.00,,,0.00,,2013-01-19 03:23:00,
2013-01-18 22:33:00,29.0,14.0,30.30,East,94,0.0,4.0,54,0.00,,,0.00,,2013-01-19 03:33:00,
2013-01-18 22:43:00,29.0,14.0,30.30,East,94,0.0,4.0,54,0.00,,,0.00,,2013-01-19 03:43:00,
2013-01-18 22:53:00,29.0,13.0,30.29,ESE,113,0.0,5.0,51,0.00,,,0.00,,2013-01-19 03:53:00,
2013-01-18 23:02:00,29.0,12.0,30.29,ENE,76,1.0,6.0,49,0.00,,,0.00,,2013-01-19 04:02:00,
2013-01-18 23:12:00,29.0,12.0,30.29,ENE,76,1.0,6.0,49,0.00,,,0.00,,2013-01-19 04:12:00,
2013-01-18 23:22:00,30.0,12.0,30.28,East,101,0.0,3.0,46,0.00,,,0.00,,2013-01-19 04:22:00,
2013-01-18 23:33:00,30.0,10.0,30.27,ENE,65,1.0,5.0,43,0.00,,,0.00,,2013-01-19 04:33:00,
2013-01-18 23:42:00,30.0,10.0,30.27,ENE,65,1.0,5.0,43,0.00,,,0.00,,2013-01-19 04:42:00,
2013-01-18 23:53:00,30.0,10.0,30.27,ESE,117,0.0,4.0,42,0.00,,,0.00,,2013-01-19 04:53:00,